Weather History for Moncks Corner, SC

Change the Weather History Date:

Sunday, February 17, 2013

  Actual Average (KCHS) Record (KCHS)
Temperature  
Mean Temperature 38 °F 52 °F  
Max Temperature 46 °F 63 °F 79 °F (1976)
Min Temperature 30 °F 41 °F 15 °F (1958)
Degree Days  
Heating Degree Days 27 13  
Month to date heating degree days 246  
Since 1 July heating degree days 1505  
Cooling Degree Days 0 0  
Month to date cooling degree days 0  
Year to date cooling degree days 2  
Moisture  
Dew Point 20 °F    
Average Humidity 56    
Maximum Humidity 87    
Minimum Humidity 23    
Precipitation  
Precipitation 0.00 in 0.10 in 2.93 in (1998)
Month to date precipitation 1.80  
Year to date precipitation 5.51  
Sea Level Pressure  
Sea Level Pressure 30.19 in    
Wind  
Wind Speed 3 mph (NW)    
Max Wind Speed 16 mph    
Max Gust Speed 22 mph    
Visibility 8 miles    
Events      
T = Trace of Precipitation, MM = Missing Value Source: NWS Daily Summary

Daily Weather History Graph

Daily Weather History Graph

Search for Another Location

Airport:

Trip Planner

Search our weather history database for the weather conditions in past years. The results will help you decide how hot, cold, wet, or windy it might be!

Date:

Astronomy

Feb. 17, 2013 Rise Set
Actual Time 7:01 AM EST 6:07 PM EST
Civil Twilight 6:36 AM EST 6:32 PM EST
Nautical Twilight 6:07 AM EST 7:01 PM EST
Astronomical Twilight 5:38 AM EST 7:30 PM EST
Moon 11:17 AM EST (2/17) 12:37 AM EST (2/17)
Length of Visible Light 11h 56m
Length of Day
11h 05m
Waxing Crescent, 49% of the Moon is Illuminated
Feb 17
Waxing Crescent
Feb 17
First Quarter
Feb 25
Full
Mar 4
Last Quarter
Mar 11
New

Hourly Weather History & Observations

Time (EST) Temp. Windchill Dew Point Humidity Pressure Visibility Wind Dir Wind Speed Gust Speed Precip Events Conditions
12:15 AM 35.6 °F - 30.2 °F 81% 30.04 in 7.0 mi Calm Calm - N/A   Scattered Clouds
12:35 AM 35.6 °F - 32.0 °F 87% 30.04 in 10.0 mi Calm Calm - N/A   Mostly Cloudy
12:55 AM 33.8 °F - 30.2 °F 87% 30.05 in 10.0 mi Calm Calm - N/A   Clear
1:15 AM 33.8 °F 30.8 °F 30.2 °F 87% 30.05 in 7.0 mi West 3.5 mph - N/A   Clear
1:35 AM 33.8 °F 30.8 °F 28.4 °F 81% 30.06 in 10.0 mi NW 3.5 mph - N/A   Clear
1:55 AM 33.8 °F - 26.6 °F 75% 30.07 in 10.0 mi Calm Calm - N/A   Clear
2:15 AM 32.0 °F - 26.6 °F 80% 30.07 in 10.0 mi Calm Calm - N/A   Clear
2:35 AM 32.0 °F 26.4 °F 24.8 °F 75% 30.07 in 10.0 mi West 5.8 mph - N/A   Clear
2:55 AM 32.0 °F 28.7 °F 24.8 °F 75% 30.07 in 10.0 mi West 3.5 mph - N/A   Clear
3:15 AM 32.0 °F 28.7 °F 24.8 °F 75% 30.08 in 10.0 mi WNW 3.5 mph - N/A   Clear
3:35 AM 32.0 °F - 24.8 °F 75% 30.08 in 10.0 mi Calm Calm - N/A   Clear
3:55 AM 32.0 °F 28.7 °F 23.0 °F 69% 30.09 in 7.0 mi West 3.5 mph - N/A   Clear
4:15 AM 32.0 °F 28.7 °F 23.0 °F 69% 30.09 in 10.0 mi NW 3.5 mph - N/A   Clear
4:35 AM 32.0 °F - 23.0 °F 69% 30.10 in 7.0 mi Calm Calm - N/A   Clear
4:55 AM 32.0 °F - 23.0 °F 69% 30.11 in 10.0 mi Calm Calm - N/A   Clear
5:15 AM 30.2 °F 26.7 °F 23.0 °F 75% 30.11 in 10.0 mi WNW 3.5 mph - N/A   Clear
5:35 AM 30.2 °F - 23.0 °F 75% 30.12 in 7.0 mi Calm Calm - N/A   Clear
5:55 AM 30.2 °F - 21.2 °F 69% 30.13 in 7.0 mi Calm Calm - N/A   Clear
6:15 AM 30.2 °F - 21.2 °F 69% 30.13 in 7.0 mi Calm Calm - N/A   Clear
7:15 AM 30.2 °F - 21.2 °F 69% 30.17 in 7.0 mi Calm Calm - N/A   Clear
7:35 AM 30.2 °F 26.7 °F 21.2 °F 69% 30.18 in 7.0 mi WNW 3.5 mph - N/A   Clear
8:15 AM 32.0 °F 28.7 °F 21.2 °F 64% 30.20 in 7.0 mi West 3.5 mph - N/A   Clear
8:35 AM 33.8 °F 28.6 °F 19.4 °F 56% 30.21 in 7.0 mi WNW 5.8 mph - N/A   Clear
8:55 AM 33.8 °F 27.7 °F 19.4 °F 56% 30.22 in 7.0 mi NW 6.9 mph - N/A   Clear
9:15 AM 35.6 °F 30.7 °F 17.6 °F 48% 30.22 in 10.0 mi WNW 5.8 mph - N/A   Clear
9:35 AM 37.4 °F 32.1 °F 17.6 °F 45% 30.22 in 7.0 mi NW 6.9 mph - N/A   Clear
9:55 AM 37.4 °F 34.9 °F 17.6 °F 45% 30.22 in 7.0 mi NW 3.5 mph - N/A   Clear
10:15 AM 39.2 °F 35.0 °F 15.8 °F 39% 30.22 in 10.0 mi NW 5.8 mph - N/A   Clear
10:35 AM 39.2 °F 34.2 °F 14.0 °F 36% 30.23 in 7.0 mi NW 6.9 mph - N/A   Clear
10:55 AM 41.0 °F 35.8 °F 12.2 °F 31% 30.23 in 7.0 mi West 8.1 mph - N/A   Clear
11:15 AM 41.0 °F 35.8 °F 10.4 °F 29% 30.23 in 7.0 mi WNW 8.1 mph 21.9 mph N/A   Clear
11:35 AM 41.0 °F 34.3 °F 10.4 °F 29% 30.23 in 10.0 mi NW 11.5 mph 17.3 mph N/A   Clear
11:55 AM 42.8 °F 37.0 °F 12.2 °F 29% 30.22 in 7.0 mi NW 10.4 mph 17.3 mph N/A   Clear
12:15 PM 42.8 °F 38.0 °F 12.2 °F 29% 30.22 in 7.0 mi NNW 8.1 mph - N/A   Clear
12:35 PM 42.8 °F 40.1 °F 14.0 °F 31% 30.22 in 7.0 mi West 4.6 mph - N/A   Clear
12:55 PM 44.6 °F 40.2 °F 12.2 °F 27% 30.22 in 7.0 mi NNW 8.1 mph 17.3 mph N/A   Clear
1:15 PM 44.6 °F 38.4 °F 12.2 °F 27% 30.21 in 7.0 mi NNW 12.7 mph 17.3 mph N/A   Clear
1:55 PM 46.4 °F 39.8 °F 12.2 °F 25% 30.20 in 10.0 mi NNW 16.1 mph 20.7 mph N/A   Clear
2:15 PM 46.4 °F 41.5 °F 14.0 °F 27% 30.20 in 7.0 mi NNW 10.4 mph 17.3 mph N/A   Clear
2:35 PM 46.4 °F 40.7 °F 10.4 °F 23% 30.19 in 7.0 mi North 12.7 mph 19.6 mph N/A   Clear
2:55 PM 46.4 °F 41.9 °F 12.2 °F 25% 30.19 in 7.0 mi NW 9.2 mph 16.1 mph N/A   Clear
3:15 PM 46.4 °F 41.5 °F 12.2 °F 25% 30.19 in 7.0 mi WNW 10.4 mph 17.3 mph N/A   Clear
3:35 PM 46.4 °F 42.9 °F 12.2 °F 25% 30.20 in 10.0 mi NW 6.9 mph - N/A   Clear
3:55 PM 46.4 °F 41.9 °F 10.4 °F 23% 30.19 in 10.0 mi NW 9.2 mph 16.1 mph N/A   Clear
4:15 PM 46.4 °F 42.9 °F 12.2 °F 25% 30.20 in 10.0 mi NW 6.9 mph - N/A   Clear
4:35 PM 46.4 °F 44.3 °F 12.2 °F 25% 30.20 in 7.0 mi NW 4.6 mph - N/A   Clear
4:55 PM 46.4 °F 45.2 °F 14.0 °F 27% 30.21 in 10.0 mi West 3.5 mph - N/A   Clear
5:15 PM 46.4 °F 43.5 °F 14.0 °F 27% 30.21 in 10.0 mi WNW 5.8 mph - N/A   Clear
5:35 PM 46.4 °F 45.2 °F 14.0 °F 27% 30.21 in 7.0 mi WNW 3.5 mph - N/A   Clear
5:55 PM 44.6 °F - 14.0 °F 29% 30.22 in 10.0 mi Calm Calm - N/A   Clear
6:15 PM 42.8 °F - 17.6 °F 36% 30.22 in 5.0 mi Calm Calm - N/A   Haze
6:35 PM 42.8 °F - 15.8 °F 34% 30.24 in 10.0 mi Calm Calm - N/A   Clear
6:55 PM 39.2 °F - 21.2 °F 49% 30.24 in 10.0 mi Calm Calm - N/A   Clear
7:15 PM 37.4 °F - 24.8 °F 60% 30.25 in 10.0 mi Calm Calm - N/A   Clear
7:35 PM 33.8 °F - 26.6 °F 75% 30.26 in 7.0 mi Calm Calm - N/A   Clear
7:55 PM 33.8 °F - 26.6 °F 75% 30.26 in 10.0 mi Calm Calm - N/A   Clear
8:15 PM 33.8 °F - 26.6 °F 75% 30.27 in 7.0 mi Calm Calm - N/A   Clear
8:35 PM 33.8 °F - 24.8 °F 70% 30.28 in 10.0 mi Calm Calm - N/A   Clear
8:55 PM 32.0 °F - 26.6 °F 80% 30.28 in 10.0 mi Calm Calm - N/A   Clear
9:15 PM 32.0 °F - 24.8 °F 75% 30.29 in 10.0 mi Calm Calm - N/A   Clear
9:35 PM 32.0 °F - 24.8 °F 75% 30.30 in 10.0 mi Calm Calm - N/A   Clear
9:55 PM 32.0 °F - 24.8 °F 75% 30.30 in 10.0 mi Calm Calm - N/A   Clear
10:15 PM 30.2 °F - 26.6 °F 86% 30.31 in 10.0 mi Calm Calm - N/A   Clear
10:35 PM 30.2 °F - 26.6 °F 86% 30.30 in 10.0 mi Calm Calm - N/A   Clear
10:55 PM 30.2 °F - 24.8 °F 80% 30.31 in 10.0 mi Calm Calm - N/A   Clear
11:15 PM 30.2 °F - 24.8 °F 80% 30.31 in 10.0 mi Calm Calm - N/A   Clear
11:35 PM 30.2 °F - 24.8 °F 80% 30.31 in 7.0 mi Calm Calm - N/A   Clear
11:55 PM 30.2 °F - 24.8 °F 80% 30.32 in 7.0 mi Calm Calm - N/A   Clear